Location: La Trinit�
(48.1620°N, 3.4512°W)
Time: 18:30:13
(UTC+00:00)

Cosmos 1680 Rocket - Pass Details

Date: 08 May 2021
Orbit: 759 x 782 km, 74.1° (Epoch: 15 June)

Event Time Altitude Azimuth Distance (km) Brightness Sun altitude
Rises 22:11:49 0° 341° (NNW) 3,275 8.3 -19.4°
Reaches altitude 10° 22:14:20 10° 348° (NNW) 2,345 7.1 -19.6°
Maximum altitude 22:19:26 44° 60° (ENE) 1,072 4.2 -20.0°
Enters shadow 22:21:26 31° 109° (ESE) 1,350 4.4 -20.1°
